[[{"header":{"parameterUnit":"m.s-1","parameterCategory":1,"la1":30.2991,"la2":30.254,"lo1":-89.0895,"lo2":-89.0444,"dy":0.0017,"dx":0.0017,"nx":28,"ny":28,"refTime":"2024-07-17T03:00:00:Z","depth":0,"parameterNumber":2,"parameterNumberName":"U-component_of_WINDS"},"data":[0,0,0,0,0,0,0,0,0,0,0,0,0,0,0,0,0,0,0,0,0,0,0,0,0,0,0,0,0,0,0,0,0,0,0,0,0,0,0,0,0,0,0,0,0,0,0,0,0,0,0,0,0,0,0,0,0,0,-0.4019,-0.4018,0,-0.3916,-0.3914,-0.3913,-0.3837,-0.3836,-0.3835,-0.3835,-0.3729,-0.3727,-0.3725,0,0,0,0,0,0,0,0,0,0,0,0,0,-0.4151,-0.4149,-0.4019,-0.4017,-0.4016,-0.3916,-0.3914,-0.3913,-0.3837,-0.3836,-0.3835,-0.3835,-0.373,-0.3727,-0.3725,0,0,0,0,0,0,0,0,0,0,0,0,0,-0.4075,-0.4148,-0.4019,-0.3966,-0.396,-0.3916,-0.3914,-0.3913,-0.3837,-0.3836,-0.3835,-0.3834,-0.3731,-0.3728,-0.3724,-0.3724,0,0,-0.3714,-0.3713,0,0,0,0,0,0,0,0,-0.408,-0.4071,-0.3975,-0.397,-0.3963,-0.3888,-0.3922,-0.3849,-0.3837,-0.3884,-0.3835,-0.3834,-0.3783,-0.3775,-0.3758,-0.3719,-0.3715,-0.3714,-0.3712,-0.3711,-0.371,0,0,0,0,0,0,0,-0.4085,-0.4075,-0.3978,-0.3974,-0.3967,-0.3948,-0.3936,-0.3908,-0.384,-0.388,-0.3874,-0.3863,-0.3779,-0.3762,-0.3755,-0.3713,-0.3714,-0.3711,-0.3709,-0.3708,-0.3671,-0.3672,0,0,0,0,0,0,-0.4098,-0.4079,-0.3981,-0.3975,-0.402,-0.3946,-0.3933,-0.3913,-0.384,-0.3828,-0.3864,-0.386,-0.3768,-0.3759,-0.3751,-0.3748,-0.3711,-0.3708,-0.3706,-0.367,-0.3672,-0.3673,0,0,0,0,0,0,-0.4102,-0.409,-0.3985,-0.4025,-0.4011,-0.3945,-0.3923,-0.3912,-0.3894,-0.3828,-0.3816,-0.3858,-0.3766,-0.3756,-0.3732,-0.3743,-0.3706,-0.3703,-0.3669,-0.3671,-0.3672,-0.374,0,0,0,0,0,0,-0.4106,-0.4092,-0.4091,-0.4026,-0.4009,-0.3968,-0.3924,-0.391,-0.3888,-0.3882,-0.382,-0.3808,-0.3765,-0.3737,-0.3729,-0.3738,-0.3701,-0.3668,-0.367,-0.3672,-0.3737,-0.3744,-0.375,0,0,0,0,0,-0.4111,-0.4114,-0.4091,-0.408,-0.4006,-0.3969,-0.3959,-0.3909,-0.3889,-0.3888,-0.3847,-0.381,-0.3743,-0.3736,-0.3725,-0.3733,-0.3667,-0.3669,-0.3672,-0.3734,-0.3743,-0.375,0,0,0,0,0,0,-0.4181,-0.4104,-0.4078,-0.4061,-0.4022,-0.3956,-0.3953,-0.3919,-0.3885,-0.3881,-0.382,-0.3807,-0.379,-0.3759,-0.3752,-0.3731,-0.3701,-0.3701,-0.3752,-0.3759,-0.3766,-0.3774,-0.3698,0,0,0,0,0,-0.4195,-0.4171,-0.4105,-0.4095,-0.4077,-0.4019,-0.4,-0.3965,-0.3923,-0.3906,-0.3862,-0.3823,-0.3792,-0.3774,-0.3742,-0.3732,-0.3718,-0.3732,-0.3739,-0.3745,-0.3746,-0.374,-0.3746,-0.368,-0.368,-0.368,0,0,-0.4223,-0.4178,-0.4166,-0.4108,-0.4074,-0.4051,-0.4005,-0.3982,-0.3965,-0.3902,-0.3878,-0.3845,-0.3796,-0.378,-0.377,-0.3753,-0.3761,-0.3748,-0.3753,-0.3751,-0.3743,-0.3749,-0.3755,-0.3682,-0.3681,-0.3681,0,0,-0.4262,-0.4225,-0.4214,-0.4181,-0.413,-0.4091,-0.4088,-0.4027,-0.4003,-0.3978,-0.3931,-0.3909,-0.3858,-0.3826,-0.3804,-0.3832,-0.3798,-0.3824,-0.3859,-0.3853,-0.3859,-0.3863,-0.3875,-0.3879,-0.3825,-0.3825,-0.3825,0,-0.4303,-0.4266,-0.4212,-0.4192,-0.4169,-0.4112,-0.4101,-0.4072,-0.4013,-0.3999,-0.3981,-0.3917,-0.388,-0.3856,-0.3864,-0.3846,-0.3843,-0.3831,-0.3862,-0.3866,-0.3869,-0.388,-0.3884,-0.3829,-0.3828,-0.3828,-0.3828,0,-0.432,-0.4295,-0.4292,-0.4238,-0.4214,-0.4199,-0.4144,-0.4126,-0.4094,-0.4057,-0.4033,-0.3987,-0.3946,-0.3938,-0.3905,-0.391,-0.3901,-0.3873,-0.3842,-0.388,-0.3889,-0.3892,-0.3834,-0.3832,-0.3831,-0.3831,0,0,-0.44,-0.4317,-0.4317,-0.4293,-0.4233,-0.4213,-0.4196,-0.4156,-0.4143,-0.4105,-0.409,-0.4049,-0.4023,-0.3998,-0.3961,-0.3956,-0.3984,-0.3929,-0.3927,-0.3942,-0.3988,-0.401,-0.4016,-0.3961,-0.3962,-0.3962,-0.3993,0,-0.4431,-0.4397,-0.4349,-0.4331,-0.4309,-0.4254,-0.4239,-0.4202,-0.4167,-0.4143,-0.4105,-0.4078,-0.4046,-0.403,-0.4023,-0.3983,-0.3993,-0.3979,-0.3947,-0.3947,-0.3963,-0.402,-0.4043,-0.4075,-0.3996,-0.3996,-0.3997,0,-0.4463,-0.4428,-0.4409,-0.4352,-0.434,-0.4328,-0.4289,-0.4266,-0.4223,-0.4198,-0.417,-0.4131,-0.4111,-0.4083,-0.4055,-0.4047,-0.4031,-0.4009,-0.4009,-0.4005,-0.3975,-0.4019,-0.4083,-0.4089,-0.4001,-0.4001,-0.4001,0,-0.4526,-0.4474,-0.4456,-0.4436,-0.4369,-0.4362,-0.4334,-0.4289,-0.4269,-0.4235,-0.4221,-0.4185,-0.4166,-0.4139,-0.4091,-0.4075,-0.407,-0.4037,-0.405,-0.4051,-0.4052,-0.4053,-0.4116,-0.404,-0.404,-0.4039,-0.4039,0,-0.4566,-0.4557,-0.4484,-0.4473,-0.4461,-0.4406,-0.4396,-0.4363,-0.4324,-0.4306,-0.4256,-0.4241,-0.4179,-0.4156,-0.4119,-0.4103,-0.4094,-0.4074,-0.4064,-0.4079,-0.4082,-0.4069,-0.4066,-0.4041,-0.404,-0.404,-0.404,0,-0.4635,-0.4586,-0.4563,-0.4501,-0.4486,-0.448,-0.4428,-0.4415,-0.4378,-0.4357,-0.4349,-0.4291,-0.4262,-0.4212,-0.4168,-0.4143,-0.4135,-0.4117,-0.415,-0.4144,-0.4161,-0.416,-0.4218,-0.4224,-0.4144,-0.4144,-0.4145,0,-0.4665,-0.4656,-0.4594,-0.4579,-0.4553,-0.4528,-0.4508,-0.4453,-0.4434,-0.4385,-0.4379,-0.4346,-0.4317,-0.4274,-0.4228,-0.4195,-0.4177,-0.42,-0.4172,-0.4188,-0.418,-0.4182,-0.4181,-0.4207,-0.4208,-0.4209,-0.421,0,-0.4724,-0.47,-0.4672,-0.4636,-0.4613,-0.4582,-0.4548,-0.4538,-0.4477,-0.4458,-0.4428,-0.4406,-0.4362,-0.433,-0.4291,-0.4262,-0.4227,-0.4219,-0.422,-0.4236,-0.4256,-0.4247,-0.4169,-0.4218,-0.4217,-0.4216,-0.4216,-0.4216,-0.4775,-0.4765,-0.4721,-0.4692,-0.4661,-0.4631,-0.4617,-0.4578,-0.4552,-0.4513,-0.4482,-0.4455,-0.4413,-0.4356,-0.433,-0.4308,-0.4291,-0.4293,-0.4294,-0.4296,-0.4302,-0.4258,-0.4301,-0.43,-0.43,-0.43,-0.4299,0,-0.4833,-0.4801,-0.4775,-0.473,-0.4708,-0.4675,-0.4637,-0.462,-0.4597,-0.456,-0.4533,-0.45,-0.4469,-0.4422,-0.4388,-0.438,-0.4363,-0.4373,-0.4374,-0.4368,-0.4318,-0.4321,-0.4388,-0.4388,-0.4388,-0.4388,-0.4388,-0.4388,-0.486,-0.4843,-0.4814,-0.4782,-0.475,-0.4723,-0.4704,-0.4677,-0.4648,-0.4613,-0.4587,-0.4556,-0.4516,-0.4479,-0.445,-0.4437,-0.4427,-0.4443,-0.4425,-0.438,-0.4371,-0.4364,-0.4366,-0.4441,-0.4441,-0.4477,-0.4477,-0.4478]},{"header":{"parameterUnit":"m.s-1","parameterCategory":1,"la1":30.2991,"la2":30.254,"lo1":-89.0895,"lo2":-89.0444,"dy":0.0017,"dx":0.0017,"nx":28,"ny":28,"refTime":"2024-07-17T03:00:00:Z","depth":0,"parameterNumber":3,"parameterNumberName":"V-component_of_WINDS"},"data":[0,0,0,0,0,0,0,0,0,0,0,0,0,0,0,0,0,0,0,0,0,0,0,0,0,0,0,0,0,0,0,0,0,0,0,0,0,0,0,0,0,0,0,0,0,0,0,0,0,0,0,0,0,0,0,0,0,0,5.4031,5.403,0,5.4003,5.4003,5.4002,5.3983,5.3982,5.3982,5.3982,5.3949,5.3949,5.3948,0,0,0,0,0,0,0,0,0,0,0,0,0,5.4063,5.4063,5.4031,5.403,5.403,5.4003,5.4003,5.4002,5.3983,5.3982,5.3982,5.3982,5.3949,5.3949,5.3948,0,0,0,0,0,0,0,0,0,0,0,0,0,5.4043,5.4062,5.4031,5.4017,5.4016,5.4003,5.4003,5.4002,5.3983,5.3982,5.3982,5.3982,5.395,5.3949,5.3948,5.3945,0,0,5.3944,5.3944,0,0,0,0,0,0,0,0,5.4045,5.4042,5.4019,5.4018,5.4016,5.3996,5.4002,5.3983,5.3983,5.3995,5.3982,5.3982,5.3965,5.3962,5.3958,5.3944,5.3942,5.3944,5.3943,5.3943,5.3943,0,0,0,0,0,0,0,5.4046,5.4043,5.402,5.4019,5.4017,5.4011,5.4008,5.3998,5.3981,5.3994,5.3992,5.399,5.3964,5.3959,5.3957,5.3942,5.3944,5.3943,5.3943,5.3942,5.3926,5.3926,0,0,0,0,0,0,5.405,5.4045,5.402,5.4019,5.403,5.4011,5.4007,5.4003,5.3981,5.3978,5.399,5.3989,5.3961,5.3958,5.3955,5.3952,5.3943,5.3942,5.3941,5.3925,5.3926,5.3926,0,0,0,0,0,0,5.4051,5.4048,5.4022,5.4031,5.4028,5.401,5.4005,5.4002,5.3997,5.3978,5.3975,5.3988,5.396,5.3957,5.3948,5.395,5.3941,5.394,5.3925,5.3925,5.3926,5.3944,0,0,0,0,0,0,5.4052,5.4048,5.4048,5.4032,5.4027,5.4016,5.4006,5.4002,5.3996,5.3994,5.3976,5.3972,5.396,5.395,5.3947,5.3949,5.394,5.3925,5.3925,5.3926,5.3943,5.3945,5.3947,0,0,0,0,0,5.4053,5.4053,5.4048,5.4045,5.4027,5.4016,5.4014,5.4001,5.3996,5.3995,5.3983,5.3973,5.3951,5.395,5.3946,5.3947,5.3925,5.3925,5.3926,5.3943,5.3945,5.3947,0,0,0,0,0,0,5.4069,5.4051,5.4045,5.404,5.403,5.4013,5.4011,5.4003,5.3993,5.3992,5.3975,5.3971,5.3964,5.3955,5.3954,5.3944,5.3936,5.3936,5.395,5.3952,5.3954,5.3956,5.3939,0,0,0,0,0,5.4072,5.4067,5.4051,5.4048,5.4043,5.4029,5.4023,5.4015,5.4003,5.3998,5.3985,5.3973,5.3964,5.3958,5.3948,5.3942,5.3938,5.3941,5.3943,5.3944,5.3944,5.3941,5.3942,5.3927,5.3927,5.3927,0,0,5.4078,5.4068,5.4065,5.4051,5.4042,5.4036,5.4025,5.4018,5.4013,5.3996,5.3988,5.3979,5.3964,5.3958,5.3954,5.3949,5.3947,5.3945,5.3946,5.3945,5.3941,5.3943,5.3944,5.3928,5.3928,5.3928,0,0,5.4086,5.4077,5.4075,5.4067,5.4054,5.4044,5.4044,5.4028,5.4022,5.4014,5.4001,5.3994,5.3978,5.3968,5.3961,5.3967,5.3957,5.3964,5.3973,5.397,5.3971,5.3972,5.3974,5.3975,5.3964,5.3964,5.3964,0,5.4094,5.4086,5.4074,5.4069,5.4063,5.4049,5.4046,5.4038,5.4022,5.4018,5.4014,5.3994,5.3983,5.3974,5.3976,5.3971,5.3969,5.3966,5.3972,5.3973,5.3973,5.3975,5.3976,5.3965,5.3965,5.3965,5.3965,0,5.4097,5.4091,5.409,5.4077,5.4071,5.4067,5.4053,5.4049,5.4041,5.4031,5.4023,5.401,5.3998,5.3995,5.3986,5.3985,5.3983,5.3975,5.3967,5.3976,5.3977,5.3978,5.3967,5.3966,5.3966,5.3966,0,0,5.4112,5.4095,5.4094,5.4089,5.4075,5.4069,5.4064,5.4054,5.405,5.404,5.4035,5.4022,5.4016,5.4008,5.3998,5.3996,5.4001,5.3989,5.3988,5.3991,5.3999,5.4004,5.4005,5.3995,5.3995,5.3995,5.4,0,5.4118,5.411,5.4099,5.4094,5.4089,5.4076,5.4072,5.4062,5.4054,5.4047,5.4036,5.4028,5.402,5.4016,5.4013,5.4001,5.4002,5.4001,5.3989,5.3989,5.3993,5.4006,5.4011,5.4017,5.4001,5.4001,5.4001,0,5.4123,5.4115,5.411,5.4097,5.4095,5.4091,5.4081,5.4075,5.4064,5.4057,5.405,5.404,5.4033,5.4027,5.4017,5.4016,5.4011,5.4004,5.4004,5.4002,5.3995,5.4004,5.4018,5.4019,5.4001,5.4001,5.4001,0,5.4135,5.4123,5.4119,5.4114,5.4099,5.4097,5.4091,5.4079,5.4074,5.4065,5.4061,5.4051,5.4045,5.4037,5.4024,5.402,5.4016,5.4008,5.401,5.401,5.4009,5.4009,5.4022,5.4006,5.4006,5.4006,5.4006,0,5.4142,5.4139,5.4125,5.4122,5.4118,5.4106,5.4103,5.4095,5.4085,5.408,5.4068,5.4063,5.4047,5.404,5.403,5.4024,5.4021,5.4015,5.4012,5.4016,5.4017,5.4012,5.4011,5.4006,5.4006,5.4006,5.4006,0,5.4155,5.4145,5.4139,5.4126,5.4123,5.4121,5.4109,5.4105,5.4097,5.409,5.4088,5.4074,5.4065,5.4052,5.4039,5.4032,5.4027,5.4023,5.4031,5.403,5.4032,5.4032,5.4043,5.4043,5.4027,5.4027,5.4027,0,5.416,5.4158,5.4145,5.4142,5.4136,5.413,5.4125,5.4113,5.4108,5.4096,5.4094,5.4085,5.4077,5.4063,5.4051,5.4041,5.4036,5.404,5.4034,5.4038,5.4036,5.4036,5.4036,5.4042,5.4042,5.4042,5.4042,0,5.417,5.4165,5.4159,5.4152,5.4147,5.414,5.4132,5.4129,5.4116,5.4111,5.4103,5.4097,5.4084,5.4075,5.4064,5.4056,5.4046,5.4045,5.4044,5.4048,5.4053,5.405,5.4035,5.4044,5.4044,5.4044,5.4044,5.4044,5.4179,5.4177,5.4168,5.4161,5.4155,5.4148,5.4145,5.4136,5.413,5.412,5.4113,5.4105,5.4094,5.4079,5.4071,5.4064,5.406,5.406,5.406,5.406,5.4061,5.4055,5.4062,5.4062,5.4062,5.4062,5.4062,0,5.4188,5.4182,5.4177,5.4167,5.4163,5.4156,5.4148,5.4144,5.4138,5.4129,5.4122,5.4113,5.4104,5.4092,5.4082,5.4079,5.4075,5.4077,5.4077,5.4075,5.4065,5.4067,5.4081,5.4081,5.4081,5.4081,5.4081,5.4081,5.4193,5.4189,5.4183,5.4176,5.417,5.4163,5.4159,5.4153,5.4146,5.4137,5.413,5.4123,5.4113,5.4102,5.4094,5.4091,5.4087,5.4091,5.4086,5.4077,5.4076,5.4074,5.4075,5.4091,5.4091,5.4096,5.4096,5.4096]}]]